Location: Dackenheim
(49.5215°N, 8.1854°E)
Time: 06:17:46
(UTC+00:00)

AO-91 - Pass Details

Date: 19 March 2026
Orbit: 425 x 637 km, 97.5° (Epoch: 14 April)

Event Time Altitude Azimuth Distance (km) Brightness Sun altitude
Rises 21:09:31 0° 8° (N) 2,953 ? -31.8°
Reaches altitude 10° 21:11:50 10° 2° (N) 2,031 ? -32.0°
Enters shadow 21:14:00 26° 347° (NNW) 1,247 ? -32.3°
